EW4883 Weather Reports


Display with metric or nautical units.
time (UTC)temp
F
wind
direction
speed
MPH
gust
MPH
rain 1hr
in
rain 24hr
in
rain mn
in
humidity
%
barometer
mb
20260502221048 86 360 1.0 9.0 0.00 0.00 0.00 16 1012.5
20260502220548 86 360 4.0 10.0 0.00 0.00 0.00 16 1012.7
20260502215548 86 360 8.0 15.0 0.00 0.00 0.00 15 1012.7
20260502215048 86 360 8.0 15.0 0.00 0.00 0.00 16 1012.7
20260502214612 86 360 2.0 16.0 0.00 0.00 0.00 15 1012.8
20260502214048 87 360 8.0 16.0 0.00 0.00 0.00 15 1013.0
20260502213555 87 360 7.0 16.0 0.00 0.00 0.00 15 1012.9
20260502213117 86 360 5.0 13.0 0.00 0.00 0.00 15 1013.1
20260502212551 86 0 2.0 9.0 0.00 0.00 0.00 16 1013.3
20260502212049 86 360 2.0 8.0 0.00 0.00 0.00 15 1013.4
20260502211558 86 360 3.0 8.0 0.00 0.00 0.00 15 1013.4
20260502211051 85 360 5.0 13.0 0.00 0.00 0.00 14 1013.4
20260502210551 85 360 3.0 13.0 0.00 0.00 0.00 15 1013.4
20260502210054 85 360 2.0 13.0 0.00 0.00 0.00 14 1013.4
20260502205551 86 360 3.0 10.0 0.00 0.00 0.00 14 1013.6
20260502205052 86 82 4.0 10.0 0.00 0.00 0.00 13 1013.5
20260502204554 86 0 2.0 5.0 0.00 0.00 0.00 13 1013.8
20260502204051 85 360 1.0 15.0 0.00 0.00 0.00 12 1013.9
20260502203550 86 360 3.0 15.0 0.00 0.00 0.00 12 1014.0
20260502203111 86 360 7.0 13.0 0.00 0.00 0.00 12 1014.0
20260502202553 87 134 2.0 8.0 0.00 0.00 0.00 11 1014.0
20260502202049 87 167 2.0 8.0 0.00 0.00 0.00 12 1014.0
20260502201550 86 360 3.0 8.0 0.00 0.00 0.00 11 1014.2
20260502201052 86 360 1.0 13.0 0.00 0.00 0.00 14 1014.3
20260502200552 85 360 6.0 13.0 0.00 0.00 0.00 14 1014.3
20260502200056 85 360 2.0 11.0 0.00 0.00 0.00 14 1014.3
20260502195552 85 360 4.0 11.0 0.00 0.00 0.00 15 1014.4
20260502195054 85 360 1.0 14.0 0.00 0.00 0.00 16 1014.4
20260502194553 84 0 4.0 14.0 0.00 0.00 0.00 14 1014.6
20260502194051 84 360 7.0 14.0 0.00 0.00 0.00 15 1014.6
20260502193551 84 360 5.0 13.0 0.00 0.00 0.00 15 1014.6
20260502193053 84 360 5.0 13.0 0.00 0.00 0.00 19 1014.7
20260502192552 84 360 4.0 12.0 0.00 0.00 0.00 19 1014.6
20260502192048 83 360 4.0 12.0 0.00 0.00 0.00 20 1014.7
20260502191555 83 360 4.0 14.0 0.00 0.00 0.00 20 1014.7
20260502191049 83 360 7.0 14.0 0.00 0.00 0.00 20 1014.9
20260502190551 83 360 5.0 14.0 0.00 0.00 0.00 20 1014.9
20260502190054 83 360 7.0 14.0 0.00 0.00 0.00 20 1014.9
20260502185554 83 360 8.0 13.0 0.00 0.00 0.00 21 1015.0
20260502185052 83 360 6.0 14.0 0.00 0.00 0.00 21 1015.1
20260502184552 83 360 6.0 14.0 0.00 0.00 0.00 22 1015.1
20260502184048 83 360 7.0 14.0 0.00 0.00 0.00 23 1015.1
20260502183551 83 360 8.0 14.0 0.00 0.00 0.00 21 1015.3
20260502183049 83 360 4.0 12.0 0.00 0.00 0.00 20 1015.3
20260502182552 83 360 5.0 15.0 0.00 0.00 0.00 22 1015.3
20260502182051 82 360 4.0 15.0 0.00 0.00 0.00 25 1015.4
20260502181549 82 360 6.0 15.0 0.00 0.00 0.00 23 1015.4
20260502181049 82 360 8.0 14.0 0.00 0.00 0.00 25 1015.5
20260502180549 82 360 6.0 14.0 0.00 0.00 0.00 26 1015.5
20260502164053 78 360 8.0 18.0 0.00 0.00 0.00 31 1015.8
20260502163550 77 360 5.0 15.0 0.00 0.00 0.00 31 1015.8
20260502163109 77 360 6.0 15.0 0.00 0.00 0.00 32 1015.8
20260502162550 77 360 7.0 14.0 0.00 0.00 0.00 31 1015.8
20260502162049 77 360 6.0 15.0 0.00 0.00 0.00 32 1015.9
20260502161619 77 360 5.0 15.0 0.00 0.00 0.00 32 1015.8
20260502161049 76 360 7.0 15.0 0.00 0.00 0.00 33 1015.8
20260502160549 76 360 8.0 17.0 0.00 0.00 0.00 34 1015.8
20260502152050 73 360 8.0 20.0 0.00 0.00 0.00 36 1015.8
20260502151557 73 360 10.0 20.0 0.00 0.00 0.00 36 1015.7
20260502151049 73 360 8.0 16.0 0.00 0.00 0.00 36 1015.5
20260502150551 72 360 8.0 16.0 0.00 0.00 0.00 35 1015.5
20260502130551 65 360 2.0 9.0 0.00 0.00 0.00 42 1014.1
20260502123555 64 0 2.0 6.0 0.00 0.00 0.00 38 1013.8
20260502123114 64 360 2.0 6.0 0.00 0.00 0.00 38 1013.7
20260502122551 64 360 3.0 6.0 0.00 0.00 0.00 36 1013.7
20260502122054 64 360 1.0 6.0 0.00 0.00 0.00 37 1013.7
20260502121556 64 0 1.0 4.0 0.00 0.00 0.00 34 1013.7
20260502121052 64 360 2.0 4.0 0.00 0.00 0.00 33 1013.7
20260502120551 63 360 1.0 4.0 0.00 0.00 0.00 33 1013.6
20260502120110 62 360 0.0 2.0 0.00 0.00 0.00 33 1013.6
20260502115548 62 360 0.0 2.0 0.00 0.00 0.00 33 1013.5
20260502115048 62 0 0.0 2.0 0.00 0.00 0.00 34 1013.5
20260502114553 62 0 0.0 3.0 0.00 0.00 0.00 34 1013.5
20260502114048 62 360 0.0 4.0 0.00 0.00 0.00 34 1013.5
20260502113548 62 0 0.0 4.0 0.00 0.00 0.00 34 1013.4
20260502113111 62 360 1.0 4.0 0.00 0.00 0.00 34 1013.5
20260502112552 62 360 0.0 4.0 0.00 0.00 0.00 34 1013.5
20260502112051 61 360 0.0 1.0 0.00 0.00 0.00 34 1013.4
20260502111554 62 0 0.0 1.0 0.00 0.00 0.00 33 1013.5
20260502111054 62 0 0.0 2.0 0.00 0.00 0.00 34 1013.4
20260502110554 62 0 0.0 2.0 0.00 0.00 0.00 33 1013.5
20260502110101 62 0 0.0 2.0 0.00 0.00 0.00 33 1013.5
20260502105552 62 0 0.0 3.0 0.00 0.00 0.00 33 1013.6
20260502105051 62 0 0.0 3.0 0.00 0.00 0.00 33 1013.5
20260502104558 62 360 1.0 3.0 0.00 0.00 0.00 33 1013.6
20260502104051 62 0 0.0 2.0 0.00 0.00 0.00 34 1013.6
20260502103551 62 0 0.0 5.0 0.00 0.00 0.00 33 1013.7
20260502103057 62 360 1.0 5.0 0.00 0.00 0.00 33 1013.7
20260502102548 61 360 3.0 5.0 0.00 0.00 0.00 34 1013.7
20260502102051 60 360 1.0 4.0 0.00 0.00 0.00 35 1013.7
20260502101602 60 360 2.0 4.0 0.00 0.00 0.00 34 1013.8
20260502101048 61 360 0.0 4.0 0.00 0.00 0.00 34 1013.7
20260502100548 61 0 0.0 2.0 0.00 0.00 0.00 34 1013.5
20260502091051 62 0 0.0 0.0 0.00 0.00 0.00 31 1013.0
20260502090551 63 0 0.0 2.0 0.00 0.00 0.00 30 1013.1
20260502071053 65 360 0.0 3.0 0.00 0.00 0.00 28 1013.5
20260502070555 65 0 0.0 1.0 0.00 0.00 0.00 27 1013.5
20260502070111 66 0 0.0 1.0 0.00 0.00 0.00 27 1013.5
20260502065555 66 0 0.0 1.0 0.00 0.00 0.00 26 1013.6
20260502065053 67 0 0.0 2.0 0.00 0.00 0.00 26 1013.5
20260502064557 67 0 0.0 2.0 0.00 0.00 0.00 26 1013.6
20260502064053 68 0 0.0 2.0 0.00 0.00 0.00 26 1013.4
20260502063553 68 0 0.0 3.0 0.00 0.00 0.00 26 1013.4
20260502063101 68 0 0.0 3.0 0.00 0.00 0.00 26 1013.3
20260502062553 67 360 1.0 3.0 0.00 0.00 0.00 27 1013.2
20260502062053 67 0 0.0 0.0 0.00 0.00 0.00 27 1013.2
20260502061558 68 0 0.0 1.0 0.00 0.00 0.00 26 1013.2
20260502061055 68 0 0.0 2.0 0.00 0.00 0.00 26 1013.2
20260502060553 68 0 0.0 2.0 0.00 0.00 0.00 26 1013.2
20260502060058 69 360 0.0 2.0 0.00 0.00 0.00 25 1013.1
20260502055554 69 0 0.0 2.0 0.00 0.00 0.00 25 1013.2
20260502055058 70 0 0.0 2.0 0.00 0.00 0.00 24 1013.1
20260502054555 71 360 0.0 2.0 0.00 0.00 0.00 23 1013.0
20260502054053 72 0 0.0 4.0 0.00 0.00 0.00 23 1013.0
20260502053553 72 0 0.0 4.0 0.00 0.00 0.00 23 1013.0
20260502053101 73 360 0.0 4.0 0.00 0.00 0.00 22 1013.0
20260502052549 73 0 1.0 5.0 0.00 0.00 0.00 22 1013.1
20260502052052 73 360 1.0 5.0 0.00 0.00 0.00 22 1013.0
20260502051602 73 360 2.0 4.0 0.00 0.00 0.00 22 1013.0
20260502051049 74 360 2.0 4.0 0.00 0.00 0.00 22 1012.9
20260502050549 74 360 2.0 5.0 0.00 0.00 0.00 22 1012.9
20260502050055 74 360 2.0 5.0 0.00 0.00 0.00 22 1013.0
20260502045553 74 360 2.0 5.0 0.00 0.00 0.00 22 1012.9
20260502045053 74 360 2.0 5.0 0.00 0.00 0.00 22 1012.9
20260502044633 74 360 2.0 5.0 0.00 0.00 0.00 22 1012.8
20260502044052 74 360 2.0 5.0 0.00 0.00 0.00 22 1012.8
20260502043553 74 360 3.0 5.0 0.00 0.00 0.00 22 1012.7
20260502043104 74 360 2.0 5.0 0.00 0.00 0.00 22 1012.7
20260502042548 74 360 3.0 5.0 0.00 0.00 0.00 22 1012.6
20260502042052 74 360 2.0 4.0 0.00 0.00 0.00 22 1012.6
20260502041556 74 360 2.0 4.0 0.00 0.00 0.00 22 1012.6
20260502041056 74 360 2.0 4.0 0.00 0.00 0.00 22 1012.5
20260502040552 75 360 2.0 4.0 0.00 0.00 0.00 22 1012.5
20260502040104 75 360 2.0 4.0 0.00 0.00 0.00 22 1012.5
20260502035549 75 360 1.0 4.0 0.00 0.00 0.00 22 1012.4
20260502035049 75 360 1.0 5.0 0.00 0.00 0.00 22 1012.4
20260502034556 75 360 2.0 6.0 0.00 0.00 0.00 22 1012.3
20260502034049 76 360 2.0 6.0 0.00 0.00 0.00 22 1012.3
20260502033554 76 0 2.0 4.0 0.00 0.00 0.00 22 1012.2
20260502033057 76 360 1.0 3.0 0.00 0.00 0.00 22 1012.1
20260502032549 76 360 1.0 3.0 0.00 0.00 0.00 22 1012.1
20260502032049 76 360 1.0 5.0 0.00 0.00 0.00 22 1011.9
20260502031556 76 360 2.0 5.0 0.00 0.00 0.00 22 1011.9
20260502031052 76 360 2.0 4.0 0.00 0.00 0.00 22 1011.8
20260502030550 76 360 2.0 4.0 0.00 0.00 0.00 22 1011.7
20260502025549 76 360 0.0 2.0 0.00 0.00 0.00 21 1011.6
20260502025049 77 0 0.0 2.0 0.00 0.00 0.00 20 1011.3
20260502024558 77 360 0.0 4.0 0.00 0.00 0.00 20 1011.3
20260502024050 77 0 0.0 4.0 0.00 0.00 0.00 20 1011.3
20260502023549 78 0 0.0 0.0 0.00 0.00 0.00 20 1011.2
20260502023056 78 0 0.0 3.0 0.00 0.00 0.00 20 1011.2
20260502022551 79 0 0.0 4.0 0.00 0.00 0.00 20 1011.0
20260502022049 79 0 0.0 6.0 0.00 0.00 0.00 20 1010.9
20260502021553 79 360 2.0 6.0 0.00 0.00 0.00 20 1010.9
20260502021048 79 360 1.0 4.0 0.00 0.00 0.00 20 1010.9
20260502020551 80 0 1.0 5.0 0.00 0.00 0.00 19 1010.8
20260502020058 80 360 1.0 5.0 0.00 0.00 0.00 19 1010.9
20260502015549 80 360 2.0 6.0 0.00 0.00 0.00 17 1010.8
20260502015049 81 360 2.0 6.0 0.00 0.00 0.00 17 1010.7
20260502014549 81 360 3.0 9.0 0.00 0.00 0.00 17 1010.7
20260502014049 81 360 3.0 12.0 0.00 0.00 0.00 17 1010.7
20260502013549 82 360 4.0 12.0 0.00 0.00 0.00 17 1010.6
20260502013057 82 360 2.0 8.0 0.00 0.00 0.00 17 1010.4
20260502012552 82 360 2.0 12.0 0.00 0.00 0.00 16 1010.4
20260502012049 82 360 3.0 12.0 0.00 0.00 0.00 16 1010.4
20260502011553 83 360 5.0 10.0 0.00 0.00 0.00 16 1010.4
20260502011048 83 360 3.0 9.0 0.00 0.00 0.00 16 1010.4
20260502010551 84 360 3.0 11.0 0.00 0.00 0.00 15 1010.4
20260502010052 83 360 2.0 13.0 0.00 0.00 0.00 15 1010.4
20260502005549 83 360 7.0 13.0 0.00 0.00 0.00 16 1010.4
20260502005052 83 360 3.0 10.0 0.00 0.00 0.00 16 1010.2
20260502004552 84 360 5.0 10.0 0.00 0.00 0.00 16 1010.2
20260502004051 84 360 4.0 11.0 0.00 0.00 0.00 16 1010.3
20260502003548 84 360 4.0 14.0 0.00 0.00 0.00 16 1010.3
20260502003053 84 360 5.0 14.0 0.00 0.00 0.00 16 1010.3
20260502002552 84 360 6.0 11.0 0.00 0.00 0.00 16 1010.3
20260502002049 84 360 3.0 11.0 0.00 0.00 0.00 16 1010.3
20260502001556 84 360 3.0 12.0 0.00 0.00 0.00 16 1010.2
20260502001048 84 360 5.0 15.0 0.00 0.00 0.00 16 1010.3
20260502000551 84 360 4.0 15.0 0.00 0.00 0.00 16 1010.3
20260502000059 84 360 3.0 15.0 0.00 0.00 0.00 16 1010.3
20260501235549 84 360 8.0 15.0 0.00 0.00 0.00 16 1010.4
20260501235052 84 360 5.0 14.0 0.00 0.00 0.00 15 1010.4
20260501234550 85 360 6.0 12.0 0.00 0.00 0.00 15 1010.3
20260501234051 85 327 2.0 11.0 0.00 0.00 0.00 16 1010.3
20260501233549 84 360 5.0 11.0 0.00 0.00 0.00 16 1010.3
20260501233049 85 360 2.0 11.0 0.00 0.00 0.00 16 1010.3
20260501232552 84 360 6.0 11.0 0.00 0.00 0.00 15 1010.4
20260501232052 84 360 4.0 11.0 0.00 0.00 0.00 16 1010.4
20260501231556 84 360 6.0 11.0 0.00 0.00 0.00 17 1010.3
20260501231049 84 360 2.0 15.0 0.00 0.00 0.00 17 1010.3
20260501230549 84 262 7.0 15.0 0.00 0.00 0.00 17 1010.4
20260501225549 84 304 5.0 14.0 0.00 0.00 0.00 17 1010.4
20260501225048 84 266 6.0 14.0 0.00 0.00 0.00 17 1010.4
20260501224557 85 310 6.0 12.0 0.00 0.00 0.00 17 1010.4
20260501224055 85 360 2.0 10.0 0.00 0.00 0.00 17 1010.6
20260501223548 84 360 2.0 13.0 0.00 0.00 0.00 17 1010.5
20260501223103 84 360 6.0 13.0 0.00 0.00 0.00 17 1010.8
20260501222552 84 360 4.0 12.0 0.00 0.00 0.00 17 1010.8
20260501222049 85 360 2.0 8.0 0.00 0.00 0.00 16 1010.9
20260501221559 84 360 3.0 8.0 0.00 0.00 0.00 17 1010.9